Location: Bj�rn�ya
(74.5000°N, 19.0000°E)
Time: 09:09:49
(UTC+02:00)

Envisat - Pass Details

Date: 30 January 2022
Orbit: 764 x 765 km, 98.2° (Epoch: 20 May)

Event Time Altitude Azimuth Distance (km) Brightness Sun altitude
Rises 15:52:39 0° 184° (S) 3,232 6.8 -9.1°
Reaches altitude 10° 15:55:05 10° 192° (SSW) 2,309 6.2 -9.3°
Maximum altitude 15:59:53 41° 262° (W) 1,105 4.4 -9.5°
Drops below altitude 10° 16:04:44 10° 333° (NNW) 2,318 5.5 -9.8°
Sets 16:07:11 0° 341° (NNW) 3,248 6.1 -9.9°
